Hourly Data Report for August 01, 2022

ST-JOVITE
QUEBEC
Current Station Operator: ECCC - MSC

46°04'49.000" N
74°33'21.000" W
238.50 m
703GDKB
71376
WJT

Download Data

Hourly Data (August 2022)
Hourly Data Report for August 1, 2022
TIME
LST
Temp Definition
°C
Dew Point Definition
°C
Rel Hum Definition
%
Precip. Amount Definition
mm

Wind Dir Definition
10's deg

Wind Spd Definition
km/h
Visibility Definition
km
Stn Press Definition
kPa
Hmdx Definition


Wind Chill Definition


Weather Definition


00:00 17.2 17.2 100 0.0   0   98.71     LegendNANA
01:00 17.0 17.0 100 0.0 0 1   98.67     LegendNANA
02:00 16.6 LegendMM LegendMM 0.0   0   98.63     LegendNANA
03:00 16.0 LegendMM LegendMM 0.0   0   98.62     LegendNANA
04:00 15.5 LegendMM LegendMM 0.0   0   98.61     LegendNANA
05:00 15.2 LegendMM LegendMM 0.0   0   98.59     LegendNANA
06:00 16.0 LegendMM LegendMM 0.0   0   98.58     LegendNANA
07:00 17.7 LegendMM LegendMM 0.0 24 2   98.55     LegendNANA
08:00 19.8 18.6 93 0.0 18 2   98.48     LegendNANA
09:00 22.2 19.0 82 0.0 19 3   98.44 29   LegendNANA
10:00 23.8 18.9 74 0.0 19 5   98.39 30   LegendNANA
11:00 26.0 19.7 68 0.0 21 6   98.32 33   LegendNANA
12:00 26.5 17.5 58 0.0 21 7   98.28 32   LegendNANA
13:00 28.0 17.0 51 0.0 24 10   98.23 33   LegendNANA
14:00 27.7 16.6 51 0.0 22 7   98.14 33   LegendNANA
15:00 28.2 16.9 50 0.0 20 6   98.05 33   LegendNANA
16:00 26.0 18.7 64 0.0 20 4   98.01 33   LegendNANA
17:00 26.0 17.9 61 0.0 21 6   97.96 32   LegendNANA
18:00 24.5 17.7 66 0.0 23 5   97.93 30   LegendNANA
19:00 23.4 17.4 69 0.0 19 3   97.90 29   LegendNANA
20:00 21.5 17.7 79 0.0 0 1   97.88 27   LegendNANA
21:00 21.4 17.5 78 0.0 20 3   97.86 27   LegendNANA
22:00 21.3 17.6 79 0.0 21 2   97.81 27   LegendNANA
23:00 21.0 17.5 80 0.0 22 2   97.77 27   LegendNANA

Notes on Data Quality.

Legend

  • E = Estimated
  • M = Missing
  • NA = Not Available*
  • [empty] = Indicates an unobserved value
Date modified: